Location: Bats
(43.6587°N, 0.4584°W)
Time: 20:23:35
(UTC+00:00)

SL-16 R/B - Pass Details

Date: 12 January 2026
Orbit: 985 x 1007 km, 99.8° (Epoch: 13 February)

Event Time Altitude Azimuth Distance (km) Brightness Sun altitude
Rises 17:16:42 0° 12° (NNE) 3,705 5.2 -5.6°
Reaches altitude 10° 17:19:12 10° 9° (N) 2,752 4.6 -6.0°
Maximum altitude 17:25:15 61° 291° (WNW) 1,109 3.1 -7.0°
Drops below altitude 10° 17:31:17 10° 212° (SSW) 2,735 5.8 -8.0°
Sets 17:33:46 0° 209° (SSW) 3,681 6.4 -8.5°
